Location: Crescent
(42.8242°N, 73.7329°W)
Time: 06:05:05
(UTC+00:00)

A-11 Canister half - Pass Details

Date: 25 February 2026
Orbit: 1524 x 1683 km, 47.3° (Epoch: 14 March)

Event Time Altitude Azimuth Distance (km) Brightness Sun altitude
Rises 00:59:05 0° 294° (WNW) 4,687 12.8 -26.4°
Reaches altitude 10° 01:02:08 10° 293° (WNW) 3,697 12.0 -27.0°
Maximum altitude 01:11:23 75° 210° (SSW) 1,573 8.9 -28.6°
Enters shadow 01:14:11 50° 140° (SE) 1,876 9.0 -29.1°
